This is the latest recevied weather packets stored in our database for station/object N6RDS-8. If no packets are shown the sender has not sent any weather packets the latest 10 day(s).
| Time | Temp. | Humidity | Pressure | Rain* | Wind** | Luminosity | Snow |
|---|---|---|---|---|---|---|---|
| 1777897400 | 17.22° C | 43% | 1017.6 hPa | 0 mm | - | 0 W/m² | - |
| 1777897095 | 17.78° C | 43% | 1017.8 hPa | 0 mm | - | 0 W/m² | - |
| 1777896792 | 17.78° C | 42% | 1017.7 hPa | 0 mm | - | 0 W/m² | - |
| 1777896489 | 17.78° C | 42% | 1017.6 hPa | 0 mm | - | 0 W/m² | - |
| 1777896186 | 17.78° C | 42% | 1017.7 hPa | 0 mm | - | 0 W/m² | - |
| 1777895884 | 17.78° C | 42% | 1017.7 hPa | 0 mm | - | 0 W/m² | - |
| 1777895582 | 17.78° C | 41% | 1017.5 hPa | 0 mm | - | 0 W/m² | - |
| 1777895279 | 17.78° C | 42% | 1017.5 hPa | 0 mm | - | 0 W/m² | - |
| 1777894976 | 17.78° C | 43% | 1017.5 hPa | 0 mm | - | 0 W/m² | - |
| 1777894674 | 17.78° C | 42% | 1017.8 hPa | 0 mm | - | 0 W/m² | - |
| 1777894369 | 17.78° C | 42% | 1017.8 hPa | 0 mm | - | 0 W/m² | - |
| 1777894067 | 17.78° C | 42% | 1017.7 hPa | 0 mm | - | 0 W/m² | - |
| 1777893758 | 16.67° C | 43% | 1017.8 hPa | 0 mm | - | 0 W/m² | - |
| 1777893455 | 15.56° C | 44% | 1017.7 hPa | 0 mm | - | 0 W/m² | - |
| 1777893152 | 15.56° C | 47% | 1017.6 hPa | 0 mm | - | 0 W/m² | - |
| 1777892848 | 15.56° C | 47% | 1017.6 hPa | 0 mm | - | 0 W/m² | - |
| 1777892544 | 15.56° C | 46% | 1017.7 hPa | 0 mm | - | 0 W/m² | - |
| 1777892240 | 15.56° C | 49% | 1017.8 hPa | 0 mm | - | 0 W/m² | - |
| 1777891937 | 15.56° C | 48% | 1017.6 hPa | 0 mm | - | 0 W/m² | - |
| 1777891635 | 16.67° C | 48% | 1017.5 hPa | 0 mm | - | 0 W/m² | - |
| 1777891331 | 16.67° C | 44% | 1017.5 hPa | 0 mm | - | 0 W/m² | - |
| 1777891027 | 16.11° C | 46% | 1017.6 hPa | 0 mm | - | 0 W/m² | - |
| 1777890726 | 15.56° C | 46% | 1017.7 hPa | 0 mm | - | 0 W/m² | - |
| 1777890422 | 15.56° C | 48% | 1017.7 hPa | 0 mm | - | 0 W/m² | - |
| 1777890118 | 15.56° C | 47% | 1017.7 hPa | 0 mm | - | 0 W/m² | - |
* Rain latest hour (hover to see other rain measurements)
** Current wind speed in m/s (hover to see current wind gust speed)